Regional Weather Roundup
Issued by NWS

Home | Current Version | Previous Version | Graphics & Text | Print | Product List | Glossary Off
Versions: 1 2 3 4 5 6 7 8 9 10 11 12 13 14 15 16 17 18 19 20 21 22 23 24 25 26 27 28 29 30 31 32 33 34 35 36 37 38 39 40 41 42 43 44 45 46 47 48 49 50

460
ASUS43 KMKX 281100
RWRWI

WISCONSIN REGIONAL WEATHER ROUNDUP
NATIONAL WEATHER SERVICE MILWAUKEE/SULLIVAN WI
600 AM CDT WED SEP 28 2016

NOTE: "FAIR" INDICATES FEW OR NO CLOUDS BELOW 12,000 FEET WITH NO
SIGNIFICANT WEATHER AND/OR OBSTRUCTIONS TO VISIBILITY.

WIZ001-002-006>008-014>016-023>028-281200-
NORTHWEST WISCONSIN

CITY           SKY/WX    TMP DP  RH WIND       PRES   REMARKS
SUPERIOR ARPT  CLOUDY    54  49  83 N6        30.02R
ASHLAND        CLOUDY    53  50  89 NE13      29.99R
HAYWARD        LGT RAIN  52  50  93 N12       29.98R
SIREN          CLOUDY    50  48  93 N8        30.00R
CUMBERLAND     CLOUDY    48  46  93 N14G20    29.97R FOG
RICE LAKE      CLOUDY    51  48  90 NW9       29.97R FOG
CHETEK         NOT AVBL
LADYSMITH      CLOUDY    52  50  94 N8        29.93R FOG
EAU CLAIRE     NOT AVBL
MENOMONIE      CLOUDY    50  50 100 NW8       29.94R
NEW RICHMOND   CLOUDY    49  48  96 NW7       29.99R
OSCEOLA        CLOUDY    50  50 100 NW9       30.02R
$$

WIZ003>005-009-010-017-018-281200-
NORTH CENTRAL WISCONSIN

CITY           SKY/WX    TMP DP  RH WIND       PRES   REMARKS
MANITOWISH WTR NOT AVBL
ARBOR VITAE    CLOUDY    52  50  95 N9G17     29.90R
WOODRUFF       CLOUDY    52  50  95 N9G17     29.90R
RHINELANDER    CLOUDY    51  51 100 N5        29.90R
EAGLE RIVER    CLOUDY    51  51 100 N8        29.88R
LAND O LAKES   LGT RAIN  51  50  96 N6        29.91R
PHILLIPS       MOCLDY    50  50 100 N6        29.90R
TOMAHAWK       CLOUDY    48  47  96 CALM      29.89R
MEDFORD        CLOUDY   N/A N/A N/A N6        29.88R
MERRILL        CLOUDY    50  50  99 N6        29.88R
$$

WIZ029-030-035-036-043>047-281200-
CENTRAL WISCONSIN

CITY           SKY/WX    TMP DP  RH WIND       PRES   REMARKS
WAUSAU         CLOUDY    51  48  89 N7        29.86R
MOSINEE        CLOUDY    50  50 100 N7          N/A
MARSHFIELD     CLOUDY    51  48  89 N8        29.87R
STEVENS POINT  CLOUDY    48  48 100 N5        29.86R
WAUPACA        CLOUDY    52  51  95 NW5       29.85R
WAUTOMA        CLOUDY    50  48  93 NW3       29.86R
WISC RAPIDS    CLOUDY    51  50  96 N6        29.87R
CAMP DOUGLAS   CLOUDY    48  48 100 NW8       29.87R
$$

WIZ011>013-019>022-031-037>040-048>050-281200-
NORTHEAST WISCONSIN

CITY           SKY/WX    TMP DP  RH WIND       PRES   REMARKS
ANTIGO         CLOUDY    49  49  98 CALM      29.86R
SHAWANO        CLOUDY    53  50  90 N6        29.85R
OCONTO         NOT AVBL
STURGEON BAY   MOCLDY    52  50  93 N9        29.83R
GREEN BAY      CLOUDY    50  50 100 N5        29.84R
MANITOWOC      NOT AVBL
APPLETON       MOCLDY    50  50 100 NW5       29.82R
CLINTONVILLE   NOT AVBL
OSHKOSH        CLOUDY    51  48  89 NW8       29.83R
$$

WIZ032>034-041-042-053>061-281200-
SOUTHWEST WISCONSIN

CITY           SKY/WX    TMP DP  RH WIND       PRES   REMARKS
LA CROSSE      CLOUDY    53  49  86 NW12      29.91R
SPARTA         CLOUDY    49  49 100 NW7       29.90R FOG
VIROQUA        CLOUDY    48  48 100 NW9       29.89R
BOSCOBEL       CLOUDY    52  47  83 N7        29.89R
PRAIRIE DU CHI CLOUDY    50  45  81 NW12      29.90R
PLATTEVILLE    CLOUDY    49  48  96 NW9       29.87R
$$

WIZ056-057-062-063-064-067-068-281200-
SOUTH CENTRAL WISCONSIN

CITY           SKY/WX    TMP DP  RH WIND       PRES   REMARKS
REEDSBURG      NOT AVBL
BARABOO/DELLS  CLOUDY    48  47  95 NW6       29.86R
LONE ROCK      NOT AVBL
MINERAL POINT  CLOUDY    50  48  93 NW6       29.86R
MADISON        CLOUDY    49  47  93 NW6       29.84S
MIDDLETON      CLOUDY    50  50 100 N8        29.85R
WATERTOWN      CLOUDY    49  49 100 NW6       29.83R
MONROE         CLOUDY    46  46 100 NW7       29.84R FOG
JANESVILLE     CLOUDY    50  50 100 NW5       29.83R
$$

WIZ051-052-058>065-066-070>072-281200-
SOUTHEAST WISCONSIN

CITY           SKY/WX    TMP DP  RH WIND       PRES   REMARKS
MILWAUKEE      CLOUDY    51  48  89 NW9       29.81R
WAUKESHA       LGT RAIN  48  46  93 NW6       29.82R
MILWAUKEE/TIMM CLOUDY    48  46  93 NW5       29.82R
RACINE         MOCLDY    50  47  89 NW5       29.83R
BURLINGTON     CLOUDY    47  47  97 NW6       29.81S
KENOSHA        MOCLDY    49  47  93 CALM      29.82R
FOND DU LAC    CLOUDY    50  48  93 NW10      29.83R
SHEBOYGAN      CLOUDY    50  47  89 N7        29.82R
WEST BEND      CLOUDY    48  46  93 NW3       29.82R
JUNEAU         CLOUDY    48  47  95 NW5       29.84R
$$

LSZ147-162-281200-
LAKE SUPERIOR

STATION/POSITION TIME  TEMP    WIND        PRES    WAVE
                       AIR SEA DIR/SP/G            HT/PER
                 (UTC) (F)     (DEG/KT/KT) (MB)    (FT/S)
W MID LAKE BUOY  0950   56 53   20/ 21/ 29 1013.7R   6/ 6
DEVILS ISLAND    1000   53      20/ 16/ 19 1015.2R
SAXON HARBOR     1000   56      20/ 21/ 24 1013.9R
$$

LMZ867-665-643>646-281200-
LAKE MICHIGAN

STATION/POSITION TIME  TEMP    WIND        PRES    WAVE
                       AIR SEA DIR/SP/G            HT/PER
                 (UTC) (F)     (DEG/KT/KT) (MB)    (FT/S)
CHAMBERS ISLAND  1000   56     350/ 12/ 14 1009.5R
N MID LAKE BUOY  0950   57 66  140/ 12/ 16 1009.1R   2/ 6
NORTHPORT PIER   1000   55      40/  8/ 10 1009.8R
SISTER BAY       1038   54      40/  4/  7   N/A
KEWAUNEE LAKESHO 1000   49     330/  4/  5 1008.7R
SHEBOYGAN LAKESH 1000   50     330/  6/  7 1009.1R
PORT WASHINGTON  1000   51     310/  3/  5 1010.2R
ATWATER BUOY     1000   51 54  270/  6/  6 1009.5R
MILWAUKEE LAKESH 1010   51     300/  5/  6   N/A
S MID LAKE BUOY  0950   55 69  280/  6/  8 1008.8R   1/ 4
KENOSHA   LAKESH 1000   50     310/  6/  7 1009.1R
$$

TC  - TEMPERATURE IN CELSIUS
VSB - VISIBILITY IN STATUTE MILES
WCI - WIND CHILL INDEX
HX  - HEAT INDEX





USA.gov is the U.S. government's official web portal to all federal, state and local government web resources and services.